TimeCET,TemperatureF,Dew PointF,Humidity,Sea Level PressureIn,VisibilityMPH,Wind Direction,Wind SpeedMPH,Gust SpeedMPH,PrecipitationIn,Events,Conditions,WindDirDegrees,DateUTC
12:00 AM,28.4,28.4,100,30.09,1.6,Variable,3.5,-,N/A,Snow,Light Snow,0,2013-01-12 23:00:00
12:30 AM,26.6,26.6,100,30.09,1.6,Variable,2.3,-,N/A,Snow,Light Snow,0,2013-01-12 23:30:00
1:00 AM,28.4,28.4,100,30.09,1.6,Variable,2.3,-,N/A,Snow,Freezing Rain,0,2013-01-13 00:00:00
1:30 AM,28.4,28.4,100,30.09,1.2,Variable,2.3,-,N/A,Snow,Light Snow,0,2013-01-13 00:30:00
2:00 AM,26.6,26.6,100,30.09,1.4,Variable,3.5,-,N/A,Snow,Light Snow,0,2013-01-13 01:00:00
2:30 AM,26.6,26.6,100,30.09,1.4,Variable,3.5,-,N/A,Snow,Light Snow,0,2013-01-13 01:30:00
3:00 AM,26.6,26.6,100,30.09,1.6,Variable,1.2,-,N/A,,Mostly Cloudy,0,2013-01-13 02:00:00
3:30 AM,26.6,26.6,100,30.09,1.1,Variable,3.5,-,N/A,,Mostly Cloudy,0,2013-01-13 02:30:00
4:00 AM,24.8,24.8,100,30.09,0.9,East,4.6,-,N/A,,Mostly Cloudy,100,2013-01-13 03:00:00
4:30 AM,24.8,24.8,100,30.09,0.9,East,4.6,-,N/A,,Mostly Cloudy,80,2013-01-13 03:30:00
5:00 AM,23.0,23.0,100,30.06,0.9,Variable,3.5,-,N/A,,Mostly Cloudy,0,2013-01-13 04:00:00
5:30 AM,23.0,23.0,100,30.06,2.2,Variable,3.5,-,N/A,,Mostly Cloudy,0,2013-01-13 04:30:00
6:00 AM,24.8,24.8,100,30.06,3.7,East,4.6,-,N/A,,Mostly Cloudy,90,2013-01-13 05:00:00
6:30 AM,23.0,23.0,100,30.09,3.7,Variable,2.3,-,N/A,Snow,Light Snow,0,2013-01-13 05:30:00
7:00 AM,23.0,23.0,100,30.09,3.7,Variable,1.2,-,N/A,,Mostly Cloudy,0,2013-01-13 06:00:00
7:30 AM,24.8,23.0,93,30.09,3.7,Variable,3.5,-,N/A,,Overcast,0,2013-01-13 06:30:00
8:00 AM,24.8,24.8,100,30.12,3.7,Variable,2.3,-,N/A,,Overcast,0,2013-01-13 07:00:00
8:30 AM,26.6,24.8,93,30.09,3.7,East,5.8,-,N/A,Snow,Light Snow,100,2013-01-13 07:30:00
9:00 AM,26.6,24.8,93,30.09,3.7,ENE,4.6,-,N/A,Snow,Light Snow,70,2013-01-13 08:00:00
9:30 AM,28.4,24.8,86,30.12,4.3,East,4.6,-,N/A,,Mostly Cloudy,80,2013-01-13 08:30:00
10:00 AM,28.4,23.0,80,30.09,5.0,ENE,4.6,-,N/A,,Mostly Cloudy,70,2013-01-13 09:00:00
10:30 AM,28.4,24.8,86,30.09,5.0,East,5.8,-,N/A,,Unknown,80,2013-01-13 09:30:00
11:00 AM,28.4,24.8,86,30.09,5.0,East,8.1,-,N/A,,Unknown,90,2013-01-13 10:00:00
11:30 AM,28.4,24.8,86,30.09,5.0,East,8.1,-,N/A,,Unknown,90,2013-01-13 10:30:00
12:00 PM,28.4,24.8,86,30.09,5.0,East,10.4,-,N/A,,Unknown,80,2013-01-13 11:00:00
12:30 PM,28.4,24.8,86,30.06,5.0,ENE,9.2,-,N/A,,Unknown,70,2013-01-13 11:30:00
1:00 PM,30.2,24.8,80,30.06,5.0,ENE,8.1,-,N/A,,Unknown,60,2013-01-13 12:00:00
1:30 PM,28.4,24.8,86,30.06,5.0,East,8.1,-,N/A,,Unknown,80,2013-01-13 12:30:00
2:00 PM,28.4,24.8,86,30.06,5.0,East,9.2,-,N/A,,Unknown,90,2013-01-13 13:00:00
2:30 PM,28.4,24.8,86,30.09,5.0,East,11.5,-,N/A,,Mostly Cloudy,80,2013-01-13 13:30:00
3:00 PM,28.4,24.8,86,30.09,4.3,ENE,11.5,-,N/A,,Mostly Cloudy,70,2013-01-13 14:00:00
3:30 PM,28.4,23.0,80,30.09,4.3,ENE,11.5,-,N/A,,Unknown,70,2013-01-13 14:30:00
4:00 PM,28.4,23.0,80,30.09,3.7,ENE,10.4,-,N/A,,Overcast,70,2013-01-13 15:00:00
4:30 PM,28.4,23.0,80,30.09,3.7,East,8.1,-,N/A,,Overcast,90,2013-01-13 15:30:00
5:00 PM,26.6,24.8,93,30.09,2.5,East,10.4,-,N/A,Snow,Light Snow,80,2013-01-13 16:00:00
5:30 PM,26.6,24.8,93,30.09,2.5,ENE,10.4,-,N/A,Snow,Light Snow,70,2013-01-13 16:30:00
6:00 PM,28.4,24.8,86,30.09,3.1,ENE,10.4,-,N/A,Snow,Light Snow,70,2013-01-13 17:00:00
6:30 PM,28.4,24.8,86,30.09,3.1,ENE,11.5,-,N/A,Snow,Light Snow,70,2013-01-13 17:30:00
7:00 PM,28.4,24.8,86,30.09,3.1,ENE,11.5,-,N/A,Snow,Light Snow,70,2013-01-13 18:00:00
7:30 PM,26.6,24.8,93,30.09,3.7,East,10.4,-,N/A,Snow,Light Snow,80,2013-01-13 18:30:00
8:00 PM,26.6,23.0,86,30.09,3.7,ENE,11.5,-,N/A,Snow,Light Snow,70,2013-01-13 19:00:00
8:30 PM,26.6,23.0,86,30.09,3.7,ENE,10.4,-,N/A,Snow,Light Snow,60,2013-01-13 19:30:00
9:00 PM,26.6,24.8,93,30.09,3.1,NE,9.2,-,N/A,Snow,Light Snow Grains,50,2013-01-13 20:00:00
9:30 PM,26.6,24.8,93,30.06,3.1,NE,9.2,-,N/A,Snow,Light Snow,50,2013-01-13 20:30:00
10:00 PM,28.4,23.0,80,30.09,4.3,ENE,8.1,-,N/A,,Overcast,60,2013-01-13 21:00:00
10:30 PM,28.4,23.0,80,30.09,4.3,ENE,9.2,-,N/A,Snow,Light Snow,60,2013-01-13 21:30:00
11:00 PM,28.4,23.0,80,30.09,4.3,ENE,11.5,-,N/A,Snow,Light Snow,70,2013-01-13 22:00:00
11:30 PM,28.4,23.0,80,30.06,4.3,ENE,11.5,-,N/A,Snow,Light Snow,70,2013-01-13 22:30:00